This is the latest recevied weather packets stored in our database for station/object EA2MKR. If no packets are shown the sender has not sent any weather packets the latest 10 day(s).
| Time | Temp. | Humidity | Pressure | Rain* | Wind** | Luminosity | Snow |
|---|---|---|---|---|---|---|---|
| 1777059482 | 15.56° C | 78% | 954.5 hPa | 0 mm | - | - | - |
| 1777059304 | 15.56° C | 78% | 954.5 hPa | 0 mm | - | - | - |
| 1777058880 | 15.56° C | 76% | 954.5 hPa | 0 mm | - | - | - |
| 1777058703 | 16.11° C | 75% | 954.4 hPa | 0 mm | - | - | - |
| 1777058279 | 16.11° C | 74% | 954.2 hPa | 0 mm | - | - | - |
| 1777057979 | 16.67° C | 72% | 954.2 hPa | 0 mm | - | - | - |
| 1777057679 | 16.67° C | 71% | 954.2 hPa | 0 mm | - | - | - |
| 1777057379 | 17.22° C | 71% | 954 hPa | 0 mm | - | - | - |
| 1777057079 | 17.22° C | 70% | 953.9 hPa | 0 mm | - | - | - |
| 1777056903 | 17.78° C | 69% | 953.8 hPa | 0 mm | - | - | - |
| 1777056479 | 17.78° C | 69% | 953.7 hPa | 0 mm | - | - | - |
| 1777056178 | 18.33° C | 68% | 953.5 hPa | 0 mm | - | - | - |
| 1777055878 | 18.33° C | 67% | 953.5 hPa | 0 mm | - | - | - |
| 1777055578 | 18.89° C | 66% | 953.5 hPa | 0 mm | - | - | - |
| 1777055278 | 19.44° C | 65% | 953.5 hPa | 0 mm | - | - | - |
| 1777054979 | 20° C | 64% | 953.4 hPa | 0 mm | - | - | - |
| 1777054677 | 20.56° C | 63% | 953.4 hPa | 0 mm | - | - | - |
| 1777054378 | 20.56° C | 61% | 953.4 hPa | 0 mm | - | - | - |
| 1777054078 | 21.11° C | 61% | 953.5 hPa | 0 mm | - | - | - |
| 1777053777 | 21.11° C | 60% | 953.4 hPa | 0 mm | - | - | - |
| 1777053479 | 21.11° C | 60% | 953.4 hPa | 0 mm | - | - | - |
| 1777053302 | 21.11° C | 60% | 953.3 hPa | 0 mm | - | - | - |
| 1777052877 | 21.11° C | 64% | 953.3 hPa | 0 mm | - | - | - |
| 1777052577 | 21.11° C | 65% | 953.3 hPa | 0 mm | - | - | - |
| 1777052278 | 21.67° C | 65% | 953.3 hPa | 0 mm | - | - | - |
* Rain latest hour (hover to see other rain measurements)
** Current wind speed in m/s (hover to see current wind gust speed)